Regional Weather Roundup
Issued by NWS

Home | Current Version | Previous Version | Text Only | Print | Product List | Glossary Off
Versions: 1 2 3 4 5 6 7 8 9 10 11 12 13 14 15 16 17 18 19 20 21 22 23 24 25 26 27 28 29 30 31 32 33 34 35 36 37 38 39 40 41 42 43 44 45 46 47 48 49 50

000
ASUS43 KMKX 040311
RWRWI

WISCONSIN REGIONAL WEATHER ROUNDUP
NATIONAL WEATHER SERVICE MILWAUKEE/SULLIVAN WI
1000 PM CDT FRI JUL 03 2015

NOTE: "FAIR" INDICATES FEW OR NO CLOUDS BELOW 12,000 FEET WITH NO
SIGNIFICANT WEATHER AND/OR OBSTRUCTIONS TO VISIBILITY.

WIZ001-002-006>008-014>016-023>028-040400-
NORTHWEST WISCONSIN

CITY           SKY/WX    TMP DP  RH WIND       PRES   REMARKS
SUPERIOR ARPT  CLEAR     65  60  82 N3        29.87R
ASHLAND        PTCLDY    64  63  96 CALM      29.88R FOG
HAYWARD        PTCLDY    66  63  90 CALM      29.90R
SIREN          PTCLDY    70  63  76 SW6       29.90R
CUMBERLAND     MOCLDY    66  61  82 SW5       29.91R
RICE LAKE      MOCLDY    68  60  75 S3        29.92R HAZE
CHETEK         MOCLDY    69  60  73 CALM      29.90S
LADYSMITH      MOCLDY    67  60  80 CALM      29.93R
EAU CLAIRE     PTCLDY    68  58  70 SW3       29.90R
MENOMONIE      CLEAR     68  59  72 CALM      29.91R
NEW RICHMOND   CLEAR     67  60  78 SW5       29.91S
OSCEOLA        CLEAR     67  62  84 CALM      29.93R
$$

WIZ003>005-009-010-017-018-040400-
NORTH CENTRAL WISCONSIN

CITY           SKY/WX    TMP DP  RH WIND       PRES   REMARKS
MANITOWISH WTR CLOUDY    61  61 100 SW5       29.93R
ARBOR VITAE    MOCLDY    62  60  94 S5        29.92F
WOODRUFF       MOCLDY    62  60  94 S5        29.92F
RHINELANDER    CLOUDY    67  59  75 VRB3      29.95R
EAGLE RIVER    MOCLDY    63  62  96 W3        29.91R
LAND O LAKES   PTCLDY    64  57  79 CALM      29.92R
PHILLIPS       PTCLDY    66  60  81 CALM      29.91R
TOMAHAWK       MOCLDY    63  58  85 CALM      29.93R
MEDFORD        PTCLDY    65  58  78 W6        29.93R
MERRILL        PTCLDY    65  59  80 W3        29.93R
$$

WIZ029-030-035-036-043>047-040400-
CENTRAL WISCONSIN

CITY           SKY/WX    TMP DP  RH WIND       PRES   REMARKS
WAUSAU         CLEAR     69  56  62 W7        29.90R
MOSINEE        PTCLDY    64  55  72 W5        29.93R
MARSHFIELD     MOCLDY    65  57  75 SW5       29.92R
STEVENS POINT  CLEAR     62  55  80 CALM      29.93R
WAUPACA        CLEAR     66  59  77 CALM      29.91R
WAUTOMA        FAIR      64  60  87 CALM      29.92R
WISC RAPIDS    PTCLDY    65  57  75 W5        29.93R
CAMP DOUGLAS   CLEAR     62  62 100 W2        29.92R
$$

WIZ011>013-019>022-031-037>040-048>050-040400-
NORTHEAST WISCONSIN

CITY           SKY/WX    TMP DP  RH WIND       PRES   REMARKS
ANTIGO         PTCLDY    62  57  84 W5        29.93R
SHAWANO        CLEAR     68  59  71 CALM      29.90R
OCONTO         CLEAR     61  57  88 CALM      29.88R
STURGEON BAY   CLEAR     64  50  59 S7        29.91S
GREEN BAY      PTCLDY    70  57  63 SW3       29.90R
MANITOWOC      MOCLDY    63  53  70 MISG      29.92R
APPLETON       MOCLDY    66  55  68 SW6       29.91S
CLINTONVILLE   CLEAR     64  57  77 CALM      29.90R
OSHKOSH        CLEAR     66  56  70 SW3       29.91R
$$

WIZ032>034-041-042-053>061-040400-
SOUTHWEST WISCONSIN

CITY           SKY/WX    TMP DP  RH WIND       PRES   REMARKS
LA CROSSE      CLEAR     67  59  75 E3        29.92R
SPARTA         CLEAR     62  58  87 CALM      29.93S
VIROQUA        CLEAR     66  60  80 CALM      29.95R
BOSCOBEL       CLEAR     62  59  90 CALM      29.93R
PRAIRIE DU CHI CLEAR     64  59  85 CALM      29.92S
PLATTEVILLE    CLEAR     66  51  59 CALM      29.95R
$$

WIZ056-057-062-063-064-067-068-040400-
SOUTH CENTRAL WISCONSIN

CITY           SKY/WX    TMP DP  RH WIND       PRES   REMARKS
REEDSBURG      CLEAR     63  59  86 CALM      29.92S
BARABOO/DELLS  CLEAR     63  56  79 CALM      29.93R
LONE ROCK      CLEAR     61  56  83 CALM      29.94R
MINERAL POINT  CLEAR     66  54  63 CALM      29.95R
MADISON        PTCLDY    63  54  72 CALM      29.93R
MIDDLETON      CLEAR     61  59  91 CALM      29.94R
WATERTOWN      CLEAR     60  58  95 CALM      29.92S
MONROE         CLEAR     66  54  63 W8        29.95R
JANESVILLE     CLEAR     64  59  82 CALM      29.93R
$$

WIZ051-052-058>065-066-070>072-040400-
SOUTHEAST WISCONSIN

CITY           SKY/WX    TMP DP  RH WIND       PRES   REMARKS
MILWAUKEE      PTCLDY    63  53  70 S5        29.93R
WAUKESHA       CLEAR     61  52  72 CALM      29.95R
MILWAUKEE/TIMM CLEAR     63  46  55 CALM      29.94R
RACINE         CLEAR     60  53  77 CALM      29.95R
BURLINGTON     CLEAR     57  54  92 CALM      29.94R
KENOSHA        FAIR      60  53  77 SE3       29.94R
FOND DU LAC    CLEAR     64  56  75 S6        29.91S
SHEBOYGAN      CLEAR     60  52  74 S3        29.92S
WEST BEND      CLEAR     59  52  77 CALM      29.93S
JUNEAU         CLEAR     64  55  72 CALM      29.94R
$$

LSZ147-162-040400-
LAKE SUPERIOR

STATION/POSITION TIME  TEMP    WIND        PRES    WAVE
                       AIR SEA DIR/SP/G            HT/PER
                 (UTC) (F)     (DEG/KT/KT) (MB)    (FT/S)
W MID LAKE BUOY  0250   52 39   40/  2/  4 1011.3R   1/ 4
DEVILS ISLAND    0300   72     340/  6/  7 1011.3R
SAXON HARBOR     0240   66        CALM     1011.2R
$$

LMZ867-665-643>646-040400-
LAKE MICHIGAN

STATION/POSITION TIME  TEMP    WIND        PRES    WAVE
                       AIR SEA DIR/SP/G            HT/PER
                 (UTC) (F)     (DEG/KT/KT) (MB)    (FT/S)
CHAMBERS ISLAND  0200   70     190/  4/ 12 1011.2F
S GREEN BAY BUOY 0100   71 69  210/  8/ 12 1013.2F
N MID LAKE BUOY  0250   51 43  200/ 10/ 12 1011.8R   2/ 4
NORTHPORT PIER   0200   65     170/  4/  8 1011.5S
SISTER BAY       0244   65     170/ 10/ 12   N/A
ALGOMA LAKESHORE 0210          230/ 12/ 13   N/A
KEWAUNEE LAKESHO 0200   63     180/  9/ 10 1011.8F
SHEBOYGAN LAKESH 0300   63     210/  9/  9 1013.5R
PORT WASHINGTON  0240   62     200/  2/  3 1014.2R
ATWATER BUOY     0300   62 61  170/  4/  4 1014.9R
MILWAUKEE LAKESH 0200   63     150/  6/  6   N/A
KENOSHA   LAKESH 0300   63     210/  4/  5 1013.5R
$$

TC  - TEMPERATURE IN CELSIUS
VSB - VISIBILITY IN STATUTE MILES
WCI - WIND CHILL INDEX
HX  - HEAT INDEX



USA.gov is the U.S. government's official web portal to all federal, state and local government web resources and services.